Regional Weather Roundup
Issued by NWS Grand Forks, ND

Home | Current Version | Previous Version | Text Only | Print | Product List | Glossary On
Versions: 1 2 3 4 5 6 7 8 9 10 11 12 13 14 15 16 17 18 19 20 21 22 23 24 25 26 27 28 29 30 31 32 33 34 35 36 37 38 39 40 41 42 43 44 45 46 47 48 49 50
506
ASUS43 KFGF 041631
RWRFGF
PRAIRIE TO PINES  WEATHER ROUNDUP
NATIONAL WEATHER SERVICE EASTERN NORTH DAKOTA/GRAND FORKS ND
1000 AM CST SUN DEC 04 2016

 **SATELLITE DATA USED TO AUGMENT SKY COVER AT AUTOMATED STATIONS**
 *****  WEATHER ACROSS EASTERN NORTH DAKOTA  *****

CITY           SKY/WX    TMP DP  RH WIND       PRES   REMARKS
GRAND FORKS    CLOUDY    34  32  92 S8        29.69S
GRAND FRKS AFB CLOUDY    32  28  86 W12       29.69S WCI  23
GRAND FRKS NWS   N/A     32 N/A N/A SW6         N/A
DEVILS LAKE    CLOUDY    27  25  92 W15       29.67F FOG     WCI  15
FARGO          LGT SNOW  33  31  92 S8        29.72F VSB 3/4
WAHPETON ARPT  CLOUDY    32  30  93 SW6       29.75S
$$

 ***** WEATHER ACROSS CENTRAL AND WESTERN NORTH DAKOTA  *****

CITY           SKY/WX    TMP DP  RH WIND       PRES   REMARKS
BISMARCK       CLOUDY    32  28  85 W13       29.78R WCI  22
MINOT          CLOUDY    30  26  85 W14       29.70F WCI  19
JAMESTOWN      CLOUDY    32  27  81 NW16G23   29.72R WCI  21
MINOT AFB      CLOUDY    28  26  90 NW20      29.69F WCI  15
GARRISON         N/A     31  27  85 W18       29.72S WCI  19
WILLISTON      SUNNY     21  18  88 SW8       29.75F WCI  11
DICKINSON      SUNNY     23  16  74 W15       29.74S WCI  10
HETTINGER      SUNNY     25  17  72 W10       29.80F WCI  15
$$

 *****  OTHER AIRPORT OBSERVATIONS IN OUR AREA  *****

CITY           SKY/WX    TMP DP  RH WIND       PRES   REMARKS
WALHALLA         N/A     32  32 100 W9        29.64S WCI  24
GRAFTON AIRPOR CLOUDY    32  32 100 W14G20    29.69S WCI  22
VALLEY CITY AR CLOUDY    32  32 100 W15       29.72S WCI  22
CANDO          CLOUDY    27  27 100 W16       29.68R FOG     WCI  14
CAVALIER APRT  MIX PCPN  32  28  86 SW10      29.65S WCI  24
GWINNER          N/A     34  32  93 W13       29.74S WCI  25
SHEYENNE NWR     N/A     33  31  94 W7        29.95S
ROLLA          CLOUDY    27  27 100 W13       29.64S WCI  16
 ***** THE ABOVE OBSERVATIONS ARE NON NWS ARE NOT QUALITY
       CONTROLLED AND MAY MIS-REPORT RAIN FOR SNOW...
$$

  *****  WEATHER ACROSS NORTHERN MINNESOTA  *****

CITY           SKY/WX    TMP DP  RH WIND       PRES   REMARKS
FLAG ISLAND    CLOUDY    30  28  93 SE15      29.74F FOG     WCI  19
WARROAD        LGT SNOW  30  28  93 SE12      29.72F WCI  21
ROSEAU         LGT SNOW  34  28  80 SE12G17   29.70F
HALLOCK        CLOUDY    34  32  93 S13       29.66F FOG     WCI  25
THF RVR FALLS  LGT SNOW  32  32 100 S12       29.70F FOG     WCI  23
BAUDETTE       LGT SNOW  29  27  92 SE10      29.76S VSB 3/4 WCI  20
WASKISH        CLOUDY    30  28  93 SE10      29.76F WCI  21
CROOKSTON      CLOUDY    34  34 100 S13       29.71S FOG     WCI  25
GREENBUSH NDAW   N/A     32  32 100 S12         N/A  WCI  23
$$
  *****  WEATHER ACROSS CENTRAL AND WEST MINNESOTA  *****

CITY           SKY/WX    TMP DP  RH WIND       PRES   REMARKS
FOSSTON        LGT SNOW  30  30 100 S10       29.71F WCI  21
BEMIDJI        LGT SNOW  31  30  95 SE12      29.74F WCI  22
PARK RAPIDS    LGT SNOW  33  30  88 SE10      29.74F VSB 1   WCI  25
ELBOW LAKE     CLOUDY    32  32  99 S14       29.76F FOG     WCI  22
WADENA         LGT RAIN  32  30  93 S9        29.75F WCI  24
DETROIT LAKES  CLOUDY    34  32  93 S13G18    29.73F WCI  25
MOORHEAD       LGT RAIN  32  30  93 SW8       29.74S WCI  25
FERGUS FALLS   CLOUDY    32  32 100 S10       29.79S FOG     WCI  24
MORRIS MN      LGT SNOW  34  32  93 SW10      29.77S
STAPLES        LGT SNOW  30  30 100 S8        29.78S WCI  23
$$
  *****  WEATHER ELSEWHERE ACROSS MINNESOTA  *****

CITY           SKY/WX    TMP DP  RH WIND       PRES   REMARKS
DULUTH         LGT SNOW  30  28  92 SE12      29.87F FOG     WCI  20
INTRNTL FALLS  SNOW      29  27  92 SE8       29.81S VSB 1/2 WCI  21
ELY            PTSUNNY   28  27  93 SE9       29.86F WCI  20
CLOQUET        LGT SNOW  28  27  93 SE5       29.86F WCI  23
WHEATON        CLOUDY   N/A N/A N/A SW6       29.78F
BRAINERD       LGT SNOW  31  31 100 S13G20    29.80F VSB 3/4 WCI  21
HIBBING        LGT SNOW  28  26  92 SE9       29.84F FOG     WCI  19
ALEXANDRIA     CLOUDY    33  32  96 S13       29.77F WCI  24
SAINT CLOUD    CLOUDY    33  33 100 S9        29.83F FOG
MINNEAPOLIS    CLOUDY    33  32  96 S9        29.88F FOG
$$

  *****  WEATHER ACROSS SOUTH DAKOTA  *****

CITY           SKY/WX    TMP DP  RH WIND       PRES   REMARKS
SIOUX FALLS    FAIR      36  30  79 W7        29.87S
BROOKINGS      FAIR      34  28  79 W13       29.83S WCI  25
WATERTOWN      FAIR      31  27  85 W16       29.79S WCI  20
HURON          MOSUNNY   33  29  85 W8        29.85F
SISSETON         N/A     36  30  79 W15G22    29.74F
ABERDEEN       MOSUNNY   32  28  85 W9        29.80S WCI  24
MITCHELL       SUNNY     34  29  82 W9        29.89S
PIERRE         MOSUNNY   30  22  72 W8        29.86S WCI  22
MOBRIDGE       SUNNY     31  21  66 W12       29.79S WCI  22
RAPID CITY     SUNNY     37  21  52 W13       29.88S
$$

  *****  SOME WEATHER IN NEARBY STATES *****

CITY           SKY/WX    TMP DP  RH WIND       PRES   REMARKS
GLASGOW MT     CLEAR     26  21  81 S9        29.71F WCI  17
GREAT FALLS MT CLOUDY    35  22  58 SW26G33   29.62F WCI  22
CHEYENNE WY    SUNNY     31   6  35 SW13      29.96F WCI  21
SCOTTSBLUFF NE SUNNY     30  17  58 CALM      29.97F
OMAHA NE       PTSUNNY   35  30  82 SW6       29.99S
DES MOINES IA  FLURRIES  34  32  92 S6        29.98S
DAVENPORT IA   SNOW      31  30  96 SE9       30.05F VSB 1/2 WCI  23
CHICAGO IL     LGT SNOW  32  28  85 SE6       30.10F
EAU CLAIRE WI  LGT SNOW  31  30  96 SE13      29.93F VSB 3/4 WCI  21
LA CROSSE WI   LGT SNOW  34  32  92 S13       29.97F VSB 1   WCI  25
$$

  *****  SOME NATIONAL WEATHER *****

CITY           SKY/WX    TMP DP  RH WIND       PRES   REMARKS
LA GUARDIA NY  MOSUNNY   44  23  43 NW14      30.22F
RALEIGH NC     LGT RAIN  46  31  55 CALM      30.29F
ATLANTA GA     LGT RAIN  45  45 100 E16       30.13F FOG
NEW ORLEANS LA LGT RAIN  64  64 100 VRB3      29.93S FOG
OKLAHOMA CITY  PTSUNNY   45  41  86 N15       30.08R
ALBUQUERQUE NM SUNNY     32  13  45 N7        30.18R
SALT LAKE CITY PTSUNNY   31  19  61 SE14      30.15F WCI  21
LOS ANGELES CA SUNNY     51  33  50 E6        30.08R
BOISE ID       CLOUDY    40  34  79 SE13      29.96F
SEATTLE WA     LGT RAIN  39  38  96 VRB5      30.00R FOG
$$

*** WEATHER ACROSS MANITOBA...SASKATCHEWAN AND ONTARIO ***
                ***ONTARIO***

CITY           SKY/WX    TMP DP  RH WIND       PRES   REMARKS
GERALDTON      FLURRIES  23  19  86 SE8       30.06F WCI  14
THUNDER BAY    CLOUDY    34  27  75 S9        30.00F
SIOUX LOOKOUT  FLURRIES  27  23  86 SE7       29.86F WCI  19
TORONTO        PTSUNNY   34  25  69 E6        30.26F
BIG TROUT LK   CLOUDY    21  19  93 S14G20    29.93F WCI   8
PICKLE LAKE    CLOUDY    23  21  93 SE10      29.92F WCI  12
DRYDEN         FLURRIES  27  25  93 SE12G17   29.82F WCI  16
KENORA         LGT SNOW  28  25  86 SE10G20   29.76F WCI  19
$$
                *** MANITOBA***

CITY           SKY/WX    TMP DP  RH WIND       PRES   REMARKS
BRANDON        LGT SNOW  27  25  93 NW10      29.64S VSB 1   WCI  17
DAUPHIN        LGT SNOW  28  27  93 W6        29.65F WCI  22
ISLAND LAKE    NOT AVBL
PILOT MOUND      N/A     27  25  93 W8          N/A  WCI  18
THE PAS        CLOUDY    27  25  93 S3        29.64F
THOMPSON       LGT SNOW  23  21  93 SE7       29.71F WCI  15
WINNIPEG       LGT SNOW  32  30  93 SE15G22   29.65F FOG     WCI  22
LYNN LAKE      LGT SNOW  19  19 100 SE7       29.61F WCI  10
CHURCHILL      MOCLDY     9   7  92 S9        29.89S WCI  -5
GILLAM         CLOUDY    19  18  93 SE6       29.83F WCI  11
$$
                ***SASKATCHEWAN***

CITY           SKY/WX    TMP DP  RH WIND       PRES   REMARKS
ESTEVAN        FOG       23  23 100 W10       29.71R VSB 1/4 WCI  12
KINDERSLEY     MOCLDY    16  14  93 S3        29.63F
LLOYDMINSTER   PTCLDY    18  12  79 W12       29.59F WCI   5
PRINCE ALBERT  MOCLDY    19  18  93 SW6       29.62S WCI  11
REGINA         PTCLDY    18  16  93 E7        29.67F WCI   8
YORKTON        CLOUDY    27  25  93 NW6       29.66S WCI  20
N. BATTLEFORD  PTCLDY    19  18  93 W8        29.65F WCI   9
LA RONGE       MOCLDY    23  21  93 S5        29.56F WCI  17
SASKATOON      MOCLDY    18  16  93 SW3       29.66F
SWIFT CURRENT  MOCLDY    19  16  86 SW14      29.58F WCI   6
$$
NOTE: THESE ARE AUTOMATED STATIONS WITH LIMITED QUALITY CONTROL
      "FAIR" INDICATES FEW OR NO CLOUDS BELOW 12,000 FEET WITH NO
      SIGNIFICANT WEATHER AND/OR OBSTRUCTIONS TO VISIBILITY.
      SKY/WX - SKY CONDITION AND SIGNIFICANT WEATHER.
      TMP - AIR TEMPERATURE.    DP   - DEWPOINT TEMPERATURE.
      RH  - RELATIVE HUMIDITY.  PRES - PRESSURE.
      HX  - HEAT INDEX.         WCI  - WIND CHILL INDEX.
$




USA.gov is the U.S. government's official web portal to all federal, state and local government web resources and services.